Time,TemperatureF,DewpointF,PressureIn,WindDirection,WindDirectionDegrees,WindSpeedMPH,WindSpeedGustMPH,Humidity,HourlyPrecipIn,Conditions,Clouds,dailyrainin,SolarRadiationWatts/m^2,SoftwareType,DateUTC
2013-02-13 00:21:00,49.0,23.0,30.41,NE,43,6.0,10.0,35,0.00,,,0.00,0.000000,,2013-02-13 08:21:00,
2013-02-13 00:31:00,49.0,23.0,30.41,NE,43,6.0,10.0,35,0.00,,,0.00,0.000000,,2013-02-13 08:31:00,
2013-02-13 02:21:00,50.0,23.0,30.38,NE,56,8.0,11.0,34,-99.99,,,0.00,0.000000,,2013-02-13 10:21:00,
2013-02-13 02:31:00,50.0,23.0,30.38,NE,56,8.0,11.0,34,-99.99,,,0.00,0.000000,,2013-02-13 10:31:00,
2013-02-13 03:22:00,49.0,20.0,30.38,NE,52,9.0,13.0,32,-99.99,,,0.00,0.000000,,2013-02-13 11:22:00,
2013-02-13 03:32:00,49.0,20.0,30.38,NE,52,9.0,13.0,32,-99.99,,,0.00,0.000000,,2013-02-13 11:32:00,
2013-02-13 04:21:00,49.0,20.0,30.37,NE,52,8.0,13.0,32,-99.99,,,0.00,0.000000,,2013-02-13 12:21:00,
2013-02-13 04:32:00,49.0,20.0,30.37,NE,52,8.0,13.0,32,-99.99,,,0.00,0.000000,,2013-02-13 12:32:00,
2013-02-13 04:52:00,49.0,20.0,30.37,NE,52,8.0,13.0,32,-99.99,,,0.00,0.000000,,2013-02-13 12:52:00,
2013-02-13 07:21:00,48.0,22.0,30.39,WNW,296,5.0,10.0,35,-99.99,,,0.00,0.000000,,2013-02-13 15:21:00,
2013-02-13 07:32:00,48.0,22.0,30.39,WNW,296,5.0,10.0,35,-99.99,,,0.00,0.000000,,2013-02-13 15:32:00,
2013-02-13 08:11:00,55.0,23.0,30.40,ESE,105,5.0,58.0,28,-99.99,,,0.00,73.000000,,2013-02-13 16:11:00,
2013-02-13 09:21:00,56.0,23.0,30.41,East,101,7.0,12.0,28,-99.99,,,0.00,333.000000,,2013-02-13 17:21:00,
2013-02-13 09:41:00,56.0,23.0,30.41,East,101,7.0,12.0,28,-99.99,,,0.00,333.000000,,2013-02-13 17:41:00,
2013-02-13 09:52:00,56.0,23.0,30.41,East,101,7.0,12.0,28,-99.99,,,0.00,333.000000,,2013-02-13 17:52:00,
2013-02-13 10:22:00,61.0,25.0,30.41,ESE,105,5.0,65.0,25,0.00,,,0.00,573.000000,,2013-02-13 18:22:00,
2013-02-13 10:32:00,61.0,25.0,30.41,ESE,105,5.0,65.0,25,0.00,,,0.00,573.000000,,2013-02-13 18:32:00,
2013-02-13 10:41:00,61.0,25.0,30.41,ESE,105,5.0,65.0,25,0.00,,,0.00,573.000000,,2013-02-13 18:41:00,
2013-02-13 10:51:00,61.0,25.0,30.41,ESE,105,5.0,65.0,25,0.00,,,0.00,573.000000,,2013-02-13 18:51:00,
2013-02-13 11:21:00,64.0,23.0,30.41,South,178,7.0,13.0,21,0.00,,,0.00,740.000000,,2013-02-13 19:21:00,
2013-02-13 11:31:00,64.0,23.0,30.41,South,178,7.0,13.0,21,0.00,,,0.00,740.000000,,2013-02-13 19:31:00,
2013-02-13 11:41:00,64.0,23.0,30.41,South,178,7.0,13.0,21,0.00,,,0.00,740.000000,,2013-02-13 19:41:00,
2013-02-13 11:51:00,64.0,23.0,30.41,South,178,7.0,13.0,21,0.00,,,0.00,740.000000,,2013-02-13 19:51:00,
2013-02-13 12:21:00,66.0,21.0,30.38,SW,215,4.0,13.0,18,0.00,,,0.00,837.000000,,2013-02-13 20:21:00,
2013-02-13 12:31:00,66.0,21.0,30.38,SW,215,4.0,13.0,18,0.00,,,0.00,837.000000,,2013-02-13 20:31:00,
2013-02-13 12:52:00,66.0,21.0,30.38,SW,215,4.0,13.0,18,0.00,,,0.00,837.000000,,2013-02-13 20:52:00,
2013-02-13 13:21:00,70.0,20.0,30.35,NW,326,6.0,13.0,15,0.00,,,0.00,844.000000,,2013-02-13 21:21:00,
2013-02-13 13:31:00,70.0,20.0,30.35,NW,326,6.0,13.0,15,0.00,,,0.00,844.000000,,2013-02-13 21:31:00,
2013-02-13 14:21:00,68.0,33.0,30.33,WNW,294,10.0,16.0,27,0.00,,,0.00,755.000000,,2013-02-13 22:21:00,
2013-02-13 14:31:00,68.0,33.0,30.33,WNW,294,10.0,16.0,27,0.00,,,0.00,755.000000,,2013-02-13 22:31:00,
2013-02-13 14:42:00,68.0,33.0,30.33,WNW,294,10.0,16.0,27,0.00,,,0.00,755.000000,,2013-02-13 22:42:00,
2013-02-13 14:51:00,68.0,33.0,30.33,WNW,294,10.0,16.0,27,0.00,,,0.00,755.000000,,2013-02-13 22:51:00,
2013-02-13 15:21:00,62.0,28.0,30.31,WNW,288,13.0,18.0,27,0.00,,,0.00,623.000000,,2013-02-13 23:21:00,
2013-02-13 15:32:00,62.0,28.0,30.31,WNW,288,13.0,18.0,27,0.00,,,0.00,623.000000,,2013-02-13 23:32:00,
2013-02-13 15:41:00,62.0,28.0,30.31,WNW,288,13.0,18.0,27,0.00,,,0.00,623.000000,,2013-02-13 23:41:00,
2013-02-13 15:52:00,62.0,28.0,30.31,WNW,288,13.0,18.0,27,0.00,,,0.00,623.000000,,2013-02-13 23:52:00,
2013-02-13 16:21:00,60.0,32.0,30.31,WNW,293,10.0,18.0,34,0.00,,,0.00,413.000000,,2013-02-14 00:21:00,
2013-02-13 16:32:00,60.0,32.0,30.31,WNW,293,10.0,18.0,34,0.00,,,0.00,413.000000,,2013-02-14 00:32:00,
2013-02-13 16:42:00,60.0,32.0,30.31,WNW,293,10.0,18.0,34,0.00,,,0.00,413.000000,,2013-02-14 00:42:00,
2013-02-13 16:51:00,60.0,32.0,30.31,WNW,293,10.0,18.0,34,0.00,,,0.00,413.000000,,2013-02-14 00:51:00,
2013-02-13 17:21:00,59.0,33.0,30.31,ENE,71,6.0,13.0,38,0.00,,,0.00,136.000000,,2013-02-14 01:21:00,
2013-02-13 17:31:00,59.0,33.0,30.31,ENE,71,6.0,13.0,38,0.00,,,0.00,136.000000,,2013-02-14 01:31:00,
2013-02-13 17:41:00,59.0,33.0,30.31,ENE,71,6.0,13.0,38,0.00,,,0.00,136.000000,,2013-02-14 01:41:00,
2013-02-13 17:51:00,59.0,33.0,30.31,ENE,71,6.0,13.0,38,0.00,,,0.00,136.000000,,2013-02-14 01:51:00,
2013-02-13 18:21:00,55.0,31.0,30.32,ENE,75,5.0,12.0,39,0.00,,,0.00,0.000000,,2013-02-14 02:21:00,
2013-02-13 18:31:00,55.0,31.0,30.32,ENE,75,5.0,12.0,39,0.00,,,0.00,0.000000,,2013-02-14 02:31:00,
2013-02-13 18:41:00,55.0,31.0,30.32,ENE,75,5.0,12.0,39,0.00,,,0.00,0.000000,,2013-02-14 02:41:00,
2013-02-13 18:51:00,55.0,31.0,30.32,ENE,75,5.0,12.0,39,0.00,,,0.00,0.000000,,2013-02-14 02:51:00,
2013-02-13 19:21:00,54.0,28.0,30.31,NE,39,7.0,12.0,36,0.00,,,0.00,0.000000,,2013-02-14 03:21:00,
2013-02-13 19:31:00,54.0,28.0,30.31,NE,39,7.0,12.0,36,0.00,,,0.00,0.000000,,2013-02-14 03:31:00,
2013-02-13 19:42:00,54.0,28.0,30.31,NE,39,7.0,12.0,36,0.00,,,0.00,0.000000,,2013-02-14 03:42:00,
2013-02-13 19:51:00,54.0,28.0,30.31,NE,39,7.0,12.0,36,0.00,,,0.00,0.000000,,2013-02-14 03:51:00,
2013-02-13 20:11:00,53.0,22.0,30.31,NE,40,7.0,10.0,30,0.00,,,0.00,0.000000,,2013-02-14 04:11:00,
2013-02-13 20:21:00,53.0,22.0,30.31,NE,40,7.0,10.0,30,0.00,,,0.00,0.000000,,2013-02-14 04:21:00,
2013-02-13 20:31:00,53.0,22.0,30.31,NE,40,7.0,10.0,30,0.00,,,0.00,0.000000,,2013-02-14 04:31:00,
2013-02-13 20:41:00,53.0,22.0,30.31,NE,40,7.0,10.0,30,0.00,,,0.00,0.000000,,2013-02-14 04:41:00,
2013-02-13 20:51:00,53.0,22.0,30.31,NE,40,7.0,10.0,30,0.00,,,0.00,0.000000,,2013-02-14 04:51:00,
2013-02-13 21:21:00,54.0,20.0,30.32,ENE,58,8.0,10.0,26,0.00,,,0.00,0.000000,,2013-02-14 05:21:00,
2013-02-13 21:31:00,54.0,20.0,30.32,ENE,58,8.0,10.0,26,0.00,,,0.00,0.000000,,2013-02-14 05:31:00,
2013-02-13 22:11:00,54.0,26.0,30.32,East,79,6.0,9.0,34,-99.99,,,0.00,0.000000,,2013-02-14 06:11:00,
2013-02-13 23:21:00,54.0,30.0,30.33,SW,233,3.0,6.0,39,0.00,,,0.00,0.000000,,2013-02-14 07:21:00,
2013-02-13 23:31:00,54.0,30.0,30.33,SW,233,3.0,6.0,39,0.00,,,0.00,0.000000,,2013-02-14 07:31:00,